Ketchikan, AK

7:43 AM AKST on November 15, 2018 (GMT -0900)
Ketchikan International

Weather History for PAKT - September, 2017

Change the Weather History Date:

Wednesday, September 27, 2017

  Actual Average Record
Temperature  
Mean Temperature 60 °F -  
Max Temperature 63 °F 56 °F 65 °F (1965)
Min Temperature 57 °F 44 °F 34 °F (1983)
Degree Days  
Heating Degree Days 5    
Growing Degree Days 10 (Base 50)    
Moisture  
Dew Point 57 °F    
Average Humidity 92    
Maximum Humidity 100    
Minimum Humidity 77    
Precipitation  
Precipitation 0.30 in - - ()
Sea Level Pressure  
Sea Level Pressure 30.00 in    
Wind  
Wind Speed 12 mph (SE)    
Max Wind Speed 17 mph    
Max Gust Speed 23 mph    
Visibility 8 miles    
Events Rain    
Averages and records for this station are not official NWS values.
T = Trace of Precipitation, MM = Missing Value Source: NWS Daily Summary

Daily Weather History Graph

Daily Weather History Graph

Search for Another Location

Airport or City:

Astronomy

Sep. 27, 2017 Rise Set
Actual Time 6:42 AM AKDT 6:31 PM AKDT
Civil Twilight 6:06 AM AKDT 7:07 PM AKDT
Nautical Twilight 5:23 AM AKDT 7:50 PM AKDT
Astronomical Twilight 4:38 AM AKDT 8:35 PM AKDT
Moon 2:36 PM AKDT (9/27) 10:44 PM AKDT (9/27)
Length of Visible Light 13h 01m
Length of Day
11h 48m
Waxing Crescent, 47% of the Moon is Illuminated
Sep 27
Waxing Crescent
Sep 27
First Quarter
Oct 5
Full
Oct 12
Last Quarter
Oct 19
New

Hourly Weather History & Observations

Time (AKDT) Temp. Dew Point Humidity Pressure Visibility Wind Dir Wind Speed Gust Speed Precip Events Conditions
12:53 AM 57.9 °F 57.0 °F 97% 30.09 in 10.0 mi SE 16.1 mph 23.0 mph N/A   Overcast
2:53 AM 57.9 °F 57.0 °F 97% 30.07 in 10.0 mi SSE 12.7 mph 21.9 mph 0.00 in   Overcast
3:53 AM 57.0 °F 57.0 °F 100% 30.06 in 9.0 mi SE 13.8 mph 21.9 mph N/A   Overcast
4:24 AM 57.0 °F 57.0 °F 100% 30.06 in 10.0 mi SE 11.5 mph - N/A   Overcast
4:53 AM 57.9 °F 57.0 °F 97% 30.07 in 10.0 mi SSE 8.1 mph - 0.00 in Rain Light Rain
5:41 AM 57.2 °F 57.2 °F 100% 30.04 in 10.0 mi SE 12.7 mph - N/A   Overcast
5:53 AM 57.9 °F 57.0 °F 97% 30.05 in 10.0 mi SSE 12.7 mph 18.4 mph 0.00 in   Overcast
6:03 AM 57.9 °F 57.0 °F 97% 30.04 in 10.0 mi SSE 15.0 mph 19.6 mph 0.01 in   Overcast
6:17 AM 57.9 °F 57.0 °F 97% 30.05 in 10.0 mi South 5.8 mph - 0.01 in   Overcast
6:53 AM 57.2 °F 57.2 °F 100% 30.05 in 10.0 mi Variable 5.8 mph - N/A   Overcast
7:53 AM 59.0 °F 57.2 °F 94% 30.04 in 10.0 mi SSE 10.4 mph - N/A   Overcast
8:53 AM 60.8 °F 57.2 °F 88% 30.05 in 10.0 mi South 8.1 mph - N/A   Overcast
9:53 AM 60.8 °F 57.2 °F 88% 30.04 in 10.0 mi SSE 10.4 mph - N/A   Overcast
10:53 AM 60.8 °F 57.2 °F 88% 30.04 in 10.0 mi SSE 13.8 mph 18.4 mph N/A   Overcast
11:53 AM 62.6 °F 57.2 °F 82% 30.04 in 10.0 mi SE 12.7 mph - N/A   Overcast
12:53 PM 62.6 °F 57.2 °F 82% 30.03 in 10.0 mi ESE 17.3 mph - N/A   Mostly Cloudy
1:53 PM 63.0 °F 57.0 °F 81% 30.02 in 10.0 mi ESE 16.1 mph - N/A   Overcast
2:53 PM 62.6 °F 57.2 °F 82% 30.00 in 10.0 mi SE 11.5 mph - N/A   Overcast
3:53 PM 62.6 °F 57.2 °F 82% 29.99 in 10.0 mi SSE 10.4 mph - N/A   Overcast
4:53 PM 62.6 °F 55.4 °F 77% 29.97 in 10.0 mi SE 11.5 mph - N/A   Overcast
5:53 PM 60.8 °F 57.2 °F 88% 29.96 in 10.0 mi SE 10.4 mph - N/A   Overcast
6:53 PM 61.0 °F 57.0 °F 87% 29.97 in 10.0 mi SE 16.1 mph - N/A   Overcast
7:53 PM 60.1 °F 57.0 °F 90% 29.96 in 10.0 mi ESE 13.8 mph - N/A   Overcast
8:53 PM 60.1 °F 57.0 °F 90% 29.96 in 10.0 mi SE 11.5 mph - 0.00 in   Overcast
9:53 PM 59.0 °F 57.0 °F 93% 29.95 in 5.0 mi SSE 4.6 mph - 0.04 in Rain Light Rain
10:33 PM 59.0 °F 57.9 °F 96% 29.94 in 2.0 mi SSE 8.1 mph - 0.08 in Rain Light Rain
10:49 PM 59.0 °F 57.2 °F 94% 29.94 in 1.8 mi SSE 9.2 mph - 0.14 in Rain Heavy Rain
10:53 PM 59.0 °F 57.9 °F 96% 29.94 in 2.0 mi SSE 8.1 mph - 0.15 in Rain Rain
11:01 PM 57.9 °F 57.9 °F 100% 29.93 in 4.0 mi SSE 8.1 mph - 0.00 in Rain Light Rain
11:31 PM 59.0 °F 57.0 °F 93% 29.93 in 2.5 mi SSE 10.4 mph - 0.04 in Rain Rain
11:46 PM 59.0 °F 57.9 °F 96% 29.92 in 2.5 mi SSE 8.1 mph - 0.08 in Rain Rain
11:53 PM 59.0 °F 57.9 °F 96% 29.93 in 2.5 mi SSE 8.1 mph - 0.11 in Rain Heavy Rain